Change the Weather History Date:

Sunday, September 8, 2013

  Actual Average Record
Temperature  
Mean Temperature 52 °F -  
Max Temperature 62 °F 61 °F 71 °F (2005)
Min Temperature 42 °F 44 °F 32 °F (2003)
Degree Days  
Heating Degree Days 13    
Growing Degree Days 2 (Base 50)    
Moisture  
Dew Point 45 °F    
Average Humidity 75    
Maximum Humidity 100    
Minimum Humidity 41    
Precipitation  
Precipitation 0.01 in 0.06 in - ()
Sea Level Pressure  
Sea Level Pressure 30.27 in    
Wind  
Wind Speed 3 mph ()    
Max Wind Speed 15 mph    
Max Gust Speed -    
Visibility 7.8 miles    
Events Fog    
Averages and records for this station are not official NWS values.
T = Trace of Precipitation, MM = Missing Value Source: Averaged Metar Reports

Daily Weather History Graph

Daily Weather History Graph

Search for Another Location

Airport or City:

Trip Planner

Search our weather history database for the weather conditions in past years. The results will help you decide how hot, cold, wet, or windy it might be!

Date:

Astronomy

Sep. 08, 2013 Rise Set
Actual Time 6:32 AM AEST 6:05 PM AEST
Civil Twilight 6:05 AM AEST 6:31 PM AEST
Nautical Twilight 5:35 AM AEST 7:01 PM AEST
Astronomical Twilight 5:05 AM AEST 7:32 PM AEST
Moon 7:38 AM AEST (9/8) 8:58 PM AEST (9/8)
Length of Visible Light 12h 25m
Length of Day
11h 33m
Waxing Crescent, 7% of the Moon is Illuminated
Sep 8
Waxing Crescent
Sep 13
First Quarter
Sep 19
Full
Sep 27
Last Quarter
Oct 5
New

Hourly Weather History & Observations

Time (AEST) Temp. Windchill Dew Point Humidity Pressure Visibility Wind Dir Wind Speed Gust Speed Precip Events Conditions
12:00 AM 49 °F - 47 °F 90% 30.33 in 16 mi Calm Calm - -   Partly Cloudy
12:00 AM 50.0 °F - 46.4 °F 87% 30.30 in 6.2 mi Calm Calm - N/A   Mostly Cloudy
12:30 AM 48.2 °F - 46.4 °F 93% 30.33 in 6.2 mi Calm Calm - N/A   Mostly Cloudy
1:00 AM 49 °F - 47 °F 92% 30.34 in - Calm Calm - -  
1:00 AM 50.0 °F - 48.2 °F 94% 30.33 in 6.2 mi Calm Calm - N/A   Mostly Cloudy
1:30 AM 50.0 °F - 48.2 °F 94% 30.33 in 6.2 mi Calm Calm - N/A   Mostly Cloudy
2:00 AM 48 °F - 47 °F 94% 30.32 in - Calm Calm - -  
2:00 AM 48.2 °F - 46.4 °F 93% 30.30 in 6.2 mi Calm Calm - N/A   Mostly Cloudy
2:30 AM 46.4 °F - 46.4 °F 100% 30.30 in 6.2 mi Calm Calm - N/A   Mostly Cloudy
3:00 AM 47 °F - 46 °F 96% 30.32 in 12 mi Calm Calm - -   Haze
3:00 AM 48.2 °F - 46.4 °F 93% 30.30 in 6.2 mi Calm Calm - N/A   Mostly Cloudy
3:30 AM 48.2 °F - 46.4 °F 93% 30.30 in 6.2 mi Calm Calm - N/A   Mostly Cloudy
4:00 AM 48 °F - 47 °F 93% 30.31 in - North 5.8 mph - -  
4:00 AM 48.2 °F - 46.4 °F 93% 30.30 in 6.2 mi North 5.8 mph - N/A   Mostly Cloudy
4:30 AM 46.4 °F - 46.4 °F 100% 30.30 in 6.2 mi NNW 1.2 mph - N/A   Mostly Cloudy
5:00 AM 47 °F - 46 °F 95% 30.31 in - Calm Calm - -  
5:00 AM 46.4 °F - 46.4 °F 100% 30.30 in 6.2 mi Calm Calm - N/A   Mostly Cloudy
5:30 AM 44.6 °F - 44.6 °F 100% 30.30 in 6.2 mi NNW 1.2 mph - N/A Fog Shallow Fog
6:00 AM 44 °F - 43 °F 95% 30.32 in 6 mi North 3.5 mph - - Fog Patches of Fog
6:00 AM 44.6 °F 43.1 °F 42.8 °F 93% 30.30 in 6.2 mi North 3.5 mph - N/A Fog Shallow Fog
6:30 AM 46.4 °F 44.3 °F 44.6 °F 93% 30.30 in 6.2 mi North 4.6 mph - N/A Fog Shallow Fog
6:38 AM 44.6 °F 42.2 °F 42.8 °F 93% 30.30 in 6.2 mi North 4.6 mph - N/A Fog Shallow Fog
6:52 AM 42.8 °F 40.1 °F 42.8 °F 100% 30.30 in 6.2 mi NNW 4.6 mph - N/A Fog Shallow Fog
7:00 AM 45 °F - 43 °F 90% 30.33 in - NW 4.6 mph - -  
7:00 AM 44.6 °F 42.2 °F 42.8 °F 93% 30.30 in 6.2 mi NW 4.6 mph - N/A Fog Shallow Fog
7:30 AM 48.2 °F - 46.4 °F 93% 30.30 in 6.2 mi North 5.8 mph - N/A Fog Shallow Fog
8:00 AM 50 °F - 46 °F 81% 30.35 in - WNW 3.5 mph - -  
8:00 AM 50.0 °F - 46.4 °F 87% 30.33 in 6.2 mi WNW 3.5 mph - N/A Fog Shallow Fog
8:30 AM 50.0 °F - 44.6 °F 82% 30.33 in 6.2 mi West 5.8 mph - N/A   Mostly Cloudy
9:00 AM 52 °F - 46 °F 73% 30.36 in 16 mi WSW 4.6 mph - -   Haze
9:00 AM 51.8 °F - 46.4 °F 82% 30.33 in 6.2 mi WSW 4.6 mph - N/A   Mostly Cloudy
9:30 AM 53.6 °F - 46.4 °F 77% 30.33 in 6.2 mi South 4.6 mph - N/A   Mostly Cloudy
10:00 AM 54 °F - 45 °F 62% 30.35 in - SW 1.2 mph - -  
10:00 AM 53.6 °F - 44.6 °F 72% 30.33 in 6.2 mi SW 1.2 mph - N/A   Mostly Cloudy
10:30 AM 55.4 °F - 44.6 °F 67% 30.33 in 6.2 mi West 4.6 mph - N/A   Mostly Cloudy
11:00 AM 56 °F - 42 °F 50% 30.33 in - West 4.6 mph - -  
11:00 AM 55.4 °F - 42.8 °F 63% 30.30 in 6.2 mi West 4.6 mph - N/A   Mostly Cloudy
11:30 AM 57.2 °F - 42.8 °F 59% 30.30 in 6.2 mi SSW 4.6 mph - N/A   Mostly Cloudy
12:00 PM 57 °F - 43 °F 49% 30.31 in 19 mi West 4.6 mph - -   Partly Cloudy
12:00 PM 57.2 °F - 42.8 °F 59% 30.30 in 6.2 mi West 4.6 mph - N/A   Mostly Cloudy
12:30 PM 57.2 °F - 42.8 °F 59% 30.27 in 6.2 mi West 4.6 mph - N/A   Mostly Cloudy
1:00 PM 58 °F - 44 °F 48% 30.29 in - WSW 4.6 mph - -  
1:00 PM 59.0 °F - 44.6 °F 59% 30.27 in 6.2 mi WSW 4.6 mph - N/A   Mostly Cloudy
1:30 PM 59.0 °F - 44.6 °F 59% 30.27 in 6.2 mi NNW 5.8 mph - N/A   Mostly Cloudy
2:00 PM 59 °F - 44 °F 47% 30.27 in - SSW 5.8 mph - -  
2:00 PM 59.0 °F - 44.6 °F 59% 30.24 in 6.2 mi SSW 5.8 mph - N/A   Scattered Clouds
2:30 PM 60.8 °F - 44.6 °F 55% 30.24 in 6.2 mi SSW 3.5 mph - N/A   Scattered Clouds
3:00 PM 62 °F - 44 °F 41% 30.26 in 19 mi SW 5.8 mph - -   Partly Cloudy
3:00 PM 62.6 °F - 44.6 °F 52% 30.24 in 6.2 mi SW 5.8 mph - N/A   Scattered Clouds
3:30 PM 62.6 °F - 44.6 °F 52% 30.21 in 6.2 mi WSW 3.5 mph - N/A   Scattered Clouds
4:00 PM 60.8 °F - 44.6 °F 55% 30.21 in 6.2 mi ENE 6.9 mph - N/A   Mostly Cloudy
4:30 PM 59.0 °F - 42.8 °F 55% 30.21 in 6.2 mi SSE 8.1 mph - N/A   Mostly Cloudy
5:00 PM 58 °F - 44 °F 49% 30.23 in - SSE 9.2 mph - -  
5:00 PM 57.2 °F - 44.6 °F 63% 30.21 in 6.2 mi SSE 9.2 mph - N/A   Mostly Cloudy
5:30 PM 55.4 °F - 44.6 °F 67% 30.21 in - SSE 9.2 mph - N/A   Clear
6:00 PM 55 °F - 43 °F 53% 30.21 in 16 mi SE 6.9 mph - -   Partly Cloudy
6:00 PM 55.4 °F - 42.8 °F 63% 30.18 in - SE 6.9 mph - N/A   Clear
6:30 PM 53.6 °F - 42.8 °F 67% 30.18 in - SSE 6.9 mph - N/A   Clear
7:00 PM 53 °F - 44 °F 64% 30.24 in - SSW 5.8 mph - -  
7:00 PM 53.6 °F - 44.6 °F 72% 30.21 in 6.2 mi SSW 5.8 mph - N/A   Mostly Cloudy
7:30 PM 53.6 °F - 42.8 °F 67% 30.21 in - Calm Calm - N/A   Clear
8:00 PM 53 °F - 44 °F 63% 30.22 in - South 3.5 mph - -  
8:00 PM 53.6 °F - 44.6 °F 72% 30.21 in - South 3.5 mph - N/A   Clear
8:30 PM 53.6 °F - 42.8 °F 67% 30.21 in - Calm Calm - N/A   Clear
9:00 PM 53 °F - 43 °F 59% 30.21 in 19 mi Calm Calm - -   Mostly Cloudy
9:00 PM 53.6 °F - 42.8 °F 67% 30.18 in - Calm Calm - N/A   Clear
9:30 PM 51.8 °F - 44.6 °F 76% 30.18 in - Calm Calm - N/A   Clear
10:00 PM 52 °F - 46 °F 71% 30.19 in - Calm Calm - -  
10:00 PM 51.8 °F - 46.4 °F 82% 30.18 in - Calm Calm - N/A   Clear
10:30 PM 51.8 °F - 44.6 °F 76% 30.15 in - Calm Calm - N/A   Clear
11:00 PM 54 °F - 46 °F 66% 30.16 in - North 8.1 mph - -  
11:00 PM 53.6 °F - 46.4 °F 77% 30.15 in - North 8.1 mph - N/A   Clear
11:30 PM 57.2 °F - 44.6 °F 63% 30.12 in - North 15.0 mph - N/A   Clear